This demonstration page uses our WeatherBlox Daily Observations layout. Learn more.

Left ArrowRight Arrow

30.21309, -93.2044

Hourly Observations for July 4, 2021

Temp ( °F °C ) Dew Point ( °F °C ) Humidity (%) Winds ( mph kmh ) Pressure ( in mb ) Visibility ( mi km ) Precip ( " mm )
12:15 am 00:15 Partly Cloudy with Mist and Fog 75 23.8 73 22.9 95 95 ENE 3 6 29.93 1014 5 8 0.00 0.00
12:35 am 00:35 Partly Cloudy with Mist and Fog 75 23.8 73 23 95 95 Calm 29.93 1014 7 11 0.00 0.00
12:55 am 00:55 Clear 75 23.9 73 23 95 95 Calm 29.93 1014 7 11 0.00 0.00
1:15 am 01:15 Partly Cloudy with Mist and Fog 75 23.8 73 23 95 95 NNW 5 7 29.93 1014 7 11 0.00 0.00
1:35 am 01:35 Partly Cloudy with Mist and Fog 75 23.7 73 22.9 95 95 Calm 29.93 1014 5 8 0.00 0.00
1:55 am 01:55 Partly Cloudy with Mist and Fog 75 23.7 73 22.8 95 95 Calm 29.93 1014 7 11 0.00 0.00
2:15 am 02:15 Clear 74 23.6 73 22.8 95 95 N 3 6 29.93 1014 7 11 0.00 0.00
2:35 am 02:35 Clear with Mist and Fog 74 23.5 73 22.7 95 95 N 3 6 29.92 1013 7 11 0.00 0.00
2:55 am 02:55 Clear with Mist and Fog 74 23.6 73 22.8 95 95 Calm 29.93 1014 7 11 0.00 0.00
3:15 am 03:15 Partly Cloudy with Mist and Fog 74 23.6 73 22.8 95 95 N 3 6 29.92 1013 7 11 0.00 0.00
3:35 am 03:35 Mostly Cloudy 75 23.7 73 22.9 95 95 NNE 3 6 29.92 1013 7 11 0.00 0.00
3:55 am 03:55 Partly Cloudy 74 23.6 73 22.8 95 95 N 3 6 29.92 1013 7 11 0.00 0.00
4:15 am 04:15 Clear 74 23.6 73 22.8 95 95 N 3 6 29.92 1013 7 11 0.00 0.00
4:35 am 04:35 Partly Cloudy 74 23.6 73 22.8 95 95 N 6 9 29.92 1013 7 11 0.00 0.00
4:55 am 04:55 Mostly Cloudy with Mist and Fog 74 23.5 73 22.7 95 95 NNE 5 7 29.92 1013 4 6 0.00 0.00
5:15 am 05:15 Mostly Cloudy with Mist and Fog 74 23.4 73 22.7 96 96 NE 3 6 29.92 1013 7 11 0.00 0.00
5:35 am 05:35 Mostly Cloudy 74 23.4 73 22.6 95 95 NNE 5 7 29.92 1013 7 11 0.00 0.00
6:00 am 06:00 Mostly Clear 73 23 73 23 100 100 NNE 8 13 29.92 1013 7 11 0.00 0.00
6:46 am 06:46 Mostly Sunny 73 23 72 22 94 94 NE 8 13 29.94 1014 7 11 0.00 0.00
7:55 am 07:55 Mostly Sunny 75 24 70 21 83 83 NE 8 13 29.95 1014 7 11 0.00 0.00
8:45 am 08:45 Mostly Cloudy 75 24 70 21 83 83 ENE 7 11 29.96 1015 10 16 0.00 0.00
9:47 am 09:47 Mostly Cloudy 79 26 70 21 74 74 NNE 7 11 29.96 1015 10 16 0.00 0.00
10:47 am 10:47 Mostly Cloudy 81 27 70 21 70 70 NE 7 11 29.96 1015 10 16 0.00 0.00
11:55 am 11:55 Mostly Cloudy 84 29 70 21 62 62 ENE 8 13 29.96 1015 10 16 0.00 0.00
12:47 pm 12:47 Partly Cloudy 84 29 72 22 66 66 ENE 7 11 29.95 1014 10 16 0.00 0.00
1:45 pm 13:45 Mostly Cloudy 88 31 73 23 62 62 E 8 13 29.93 1014 10 16 0.00 0.00
2:49 pm 14:49 Mostly Cloudy 86 30 73 23 66 66 ESE 5 7 29.91 1013 10 16 0.00 0.00
3:54 pm 15:54 Mostly Cloudy 88 31 72 22 59 59 E 5 7 29.91 1013 10 16 0.00 0.00
4:46 pm 16:46 Mostly Cloudy 90 32 72 22 55 55 E 3 6 29.90 1012 10 16 0.00 0.00
5:53 pm 17:53 Mostly Cloudy 86 30 72 22 62 62 SE 5 7 29.89 1012 10 16 0.00 0.00
6:55 pm 18:55 Mostly Cloudy 86 30 75 24 70 70 S 8 13 29.89 1012 10 16 0.00 0.00
7:47 pm 19:47 Partly Cloudy 84 29 75 24 74 74 SSW 7 11 29.90 1013 10 16 0.00 0.00
8:50 pm 20:50 Mostly Cloudy 82 28 73 23 74 74 SSW 9 15 29.91 1013 10 16 0.00 0.00
9:54 pm 21:54 Partly Cloudy 82 28 75 24 79 79 SSW 6 9 29.91 1013 10 16 0.00 0.00
10:15 pm 22:15 Clear 81 27.3 75 23.9 82 82 SSW 5 7 29.92 1013 10 16 0.00 0.00
10:35 pm 22:35 Clear 81 27.1 75 23.8 82 82 SSW 5 7 29.92 1013 10 16 0.00 0.00
10:55 pm 22:55 Clear with Mist and Fog 78 25.4 75 23.9 91 91 SE 5 7 29.92 1013 5 8 0.00 0.00
11:15 pm 23:15 Clear 78 25.4 75 23.9 91 91 SSE 6 9 29.93 1014 10 16 0.00 0.00
11:35 pm 23:35 Clear 78 25.4 75 24 92 92 SE 3 6 29.93 1014 10 16 0.00 0.00
11:55 pm 23:55 Clear 77 25.2 75 24 93 93 Calm 29.93 1014 10 16 0.00 0.00

Powered by AerisWeather